RH
29 7 3 4 6 8 9 10 9 6 3 2 1 -0 0 1 1 2 2 2 3 2 2 2 2 2 2 2 2 2 2 2 2 2 2 2 2 2 2 2 2 2 2 3 3 3 3 2 2 2 2 3 2 3 4 6 8 11 14 15 17 19 20 22 23 22 20 18 17 17 16 15 15 15 15 15 15 15 15 19 20 18 19 20 19 19 17 17
42 19 3 3 5 7 9 9 6 3 2 1 0 0 1 1 2 2 2 3 2 2 2 2 2 2 2 2 2 2 2 2 2 2 2 2 2 2 2 2 2 2 2 2 2 2 2 2 3 3 2 3 3 4 5 7 11 14 16 17 19 20 21 21 21 20 19 17 15 15 14 15 16 17 17 15 14 17 18 18 18 16 17 19 21 21 18 18
25 11 2 3 5 7 7 6 3 2 1 1 0 1 1 2 2 3 3 2 2 2 2 2 2 2 2 2 2 2 2 2 2 2 3 2 2 2 2 2 2 2 2 3 4 4 5 5 5 4 4 4 5 6 8 11 14 17 18 19 20 19 19 20 19 18 17 15 14 14 14 14 16 16 15 14 14 18 20 17 15 14 14 16 18 20 20 18
4 2 2 3 4 6 5 3 2 1 1 0 1 1 2 2 2 3 3 3 2 2 2 2 2 2 2 2 2 2 2 4 4 3 4 3 2 2 2 2 3 5 6 8 9 10 10 9 9 8 8 8 10 11 12 15 17 17 17 18 18 17 17 18 18 17 18 17 15 14 13 13 14 13 13 17 17 17 19 18 17 15 13 13 14 16 17 16
1 1 1 2 4 4 3 2 1 1 0 0 1 2 2 3 3 3 3 3 3 3 3 2 2 2 2 2 2 2 2 5 6 4 3 3 2 3 5 7 10 12 14 15 15 15 15 14 13 13 13 13 14 15 15 16 15 15 15 16 16 16 17 19 20 20 20 17 14 13 12 13 13 15 17 20 19 17 18 19 18 16 15 15 15 15 16 16
1 1 1 3 3 2 2 1 0 0 0 1 2 2 3 3 3 3 3 3 3 3 3 2 2 2 2 2 2 2 2 5 4 3 4 5 7 9 13 16 17 18 18 17 17 16 16 15 14 13 14 14 14 14 14 13 13 13 14 15 17 17 17 20 22 20 16 13 12 12 12 14 14 15 16 16 16 17 19 19 18 18 18 17 16 15 14 15
1 1 2 2 2 1 1 1 0 0 1 2 2 3 3 3 3 4 4 4 4 4 3 2 2 2 2 2 2 2 4 5 6 9 11 13 15 17 18 18 17 16 15 14 13 12 11 10 10 10 11 11 12 12 11 11 12 12 12 16 17 15 15 18 18 15 13 12 11 10 11 12 11 11 11 13 17 19 20 20 19 19 18 17 16 15 15 15
1 1 1 1 1 1 1 0 1 1 2 2 3 3 3 3 3 4 5 5 4 3 2 2 2 2 2 2 3 5 8 12 14 16 17 16 16 15 15 15 13 11 10 10 9 8 8 9 9 10 10 11 11 10 10 11 11 11 12 15 14 12 15 15 14 12 10 8 7 7 10 10 9 10 11 15 21 22 21 20 19 18 18 18 17 17 17 16
1 1 1 1 1 1 1 1 1 2 2 3 3 3 3 3 4 5 5 5 4 3 2 2 3 3 5 6 8 9 12 16 16 15 14 12 11 11 11 10 8 8 8 8 8 8 9 10 10 9 10 10 9 9 9 10 10 11 12 12 11 12 12 11 10 8 6 5 5 5 9 9 9 10 14 19 24 23 21 20 19 19 19 19 19 19 18 18
1 1 1 1 1 1 1 1 2 3 3 3 3 3 4 4 5 5 5 4 3 2 3 5 8 9 11 13 13 12 12 12 11 10 9 8 8 8 8 8 8 8 8 8 8 9 10 10 8 7 9 9 8 8 8 9 9 8 8 9 9 8 7 6 6 5 4 4 3 5 8 7 6 11 18 23 24 22 22 22 21 22 22 22 22 21 20 20
1 1 1 1 1 2 2 2 3 3 3 3 3 4 4 5 5 5 4 4 3 5 8 12 14 14 13 12 12 11 10 9 8 8 8 8 8 8 8 9 10 10 9 10 10 10 11 8 6 6 7 6 6 6 7 7 5 5 8 8 6 3 3 5 4 3 3 2 2 5 7 5 5 14 24 26 24 23 24 25 24 23 24 24 24 23 22 21
2 2 2 2 2 2 2 3 3 3 4 4 4 5 5 5 4 4 4 5 8 11 14 14 13 11 11 10 9 9 9 9 9 9 9 9 9 9 9 9 10 10 10 11 11 12 11 6 5 5 5 4 4 5 6 4 2 5 7 5 3 2 3 3 3 3 2 2 3 5 6 6 8 19 28 27 24 26 29 29 26 26 27 26 25 24 22 21
2 2 2 2 2 3 3 3 4 4 4 5 6 6 5 5 5 6 9 12 14 14 12 11 10 10 10 10 10 10 10 10 10 11 11 11 11 9 9 9 9 9 10 11 11 12 10 5 3 3 3 3 3 4 4 2 1 4 5 1 2 3 2 2 4 3 2 2 3 6 5 6 14 22 29 29 26 29 32 31 29 30 31 28 25 23 23 23
2 2 2 3 3 3 4 5 5 6 6 7 6 5 6 8 11 14 15 15 14 11 10 11 11 11 10 10 10 10 10 10 11 11 11 11 11 9 9 7 7 8 9 11 10 9 7 3 2 3 2 2 2 3 2 1 1 3 4 2 2 2 2 3 3 3 3 2 2 7 6 7 18 25 30 31 28 29 31 33 34 35 34 29 26 24 24 25
3 3 3 3 4 5 6 7 7 8 8 7 7 9 12 14 16 16 14 13 11 12 12 12 12 11 10 9 10 11 11 11 12 11 10 9 9 9 7 5 6 8 8 10 9 6 4 3 2 2 1 1 2 2 2 1 1 2 3 3 3 4 3 3 4 3 3 2 2 5 7 8 15 25 33 31 25 28 33 37 39 38 36 31 28 25 26 27
3 4 5 6 8 9 9 9 9 9 9 10 13 15 16 16 14 13 12 12 13 14 14 13 11 10 10 10 10 11 11 11 11 10 8 8 8 7 6 4 5 6 6 7 6 4 3 3 2 1 2 2 2 3 3 2 2 2 3 3 4 4 4 5 5 4 3 3 4 4 6 9 12 21 31 24 21 33 39 40 42 41 38 33 29 26 27 28
6 8 10 11 12 12 11 11 11 12 14 16 18 17 16 14 13 13 13 13 13 12 13 13 12 11 9 9 10 9 8 8 8 8 6 6 7 5 4 4 4 4 4 5 4 3 3 2 2 2 2 2 2 3 3 3 3 3 4 4 4 5 5 5 5 5 4 3 5 4 5 10 10 16 26 22 26 40 41 41 43 42 40 34 29 28 27 28
11 13 14 14 13 13 13 14 15 17 18 18 17 15 13 12 13 13 13 13 12 11 10 10 12 11 8 8 8 7 6 6 5 5 5 5 6 4 3 4 3 3 4 4 3 2 2 2 2 2 2 3 3 3 4 5 5 5 5 5 5 5 5 6 5 5 5 4 5 5 5 7 7 12 23 23 27 40 42 42 44 44 43 37 29 28 28 28
16 15 14 14 15 17 18 18 19 18 18 17 14 12 12 12 12 12 12 13 12 12 12 11 10 9 7 7 5 5 6 5 4 4 4 4 4 3 3 4 3 2 3 3 3 2 3 3 2 3 3 3 3 4 5 5 6 7 6 5 6 7 6 7 6 5 5 5 5 6 6 7 8 13 20 18 22 38 44 43 44 45 45 40 34 29 29 29
17 16 17 19 21 21 20 18 16 16 15 15 13 13 13 13 13 12 12 12 10 10 12 13 13 11 10 8 5 4 4 4 4 4 3 3 3 4 4 4 3 2 3 2 3 3 3 3 3 3 4 4 4 4 5 5 6 7 6 6 7 7 8 7 7 6 6 6 6 6 7 11 11 11 15 15 19 35 45 44 44 47 47 45 40 34 31 31
20 20 22 23 23 20 16 15 15 15 15 14 14 14 14 13 12 11 10 9 8 8 8 9 11 13 13 10 4 3 4 4 3 3 3 3 4 5 4 3 3 2 2 2 3 4 3 3 3 4 4 4 4 4 5 6 6 7 6 6 7 8 8 8 7 7 6 6 7 6 8 13 12 8 13 15 20 33 41 41 42 45 47 47 44 40 37 36
23 23 23 22 19 16 15 16 16 16 15 15 15 14 13 12 10 10 9 8 8 8 8 7 6 9 12 8 3 3 4 4 3 3 3 3 4 5 4 4 3 2 3 3 3 3 3 4 3 4 4 4 5 4 5 6 6 7 8 8 9 9 8 8 8 7 7 7 8 7 9 15 11 8 14 15 17 29 34 35 37 41 46 48 46 45 45 46
23 22 21 18 15 15 16 17 17 16 16 15 14 13 12 11 10 9 7 7 8 7 7 7 5 6 9 7 3 3 4 4 3 3 3 4 4 4 5 5 4 3 3 3 4 4 3 4 4 4 4 4 5 5 5 6 6 8 9 9 9 9 9 9 8 8 8 7 10 8 7 15 15 10 14 15 16 26 33 35 37 41 47 50 51 51 52 53
20 18 17 15 15 17 17 18 18 16 15 14 15 14 13 15 15 13 8 5 6 6 6 6 4 5 6 7 6 4 3 4 4 4 4 4 4 5 5 5 6 5 4 4 4 4 4 4 5 6 7 6 5 6 6 6 7 9 9 10 9 9 10 9 8 8 8 9 11 9 9 14 15 12 14 16 18 26 33 35 38 44 49 53 58 61 64 66
16 15 15 15 17 18 18 18 17 16 16 16 16 15 16 19 18 17 13 7 5 6 6 6 5 5 5 6 7 6 4 4 4 4 4 5 5 5 5 5 6 6 6 6 5 5 5 5 7 9 8 7 6 6 7 8 9 10 9 10 10 10 9 8 9 8 8 9 8 12 20 19 13 15 16 15 19 24 27 31 36 44 49 53 58 63 68 73
15 15 16 17 18 18 18 17 17 17 17 17 17 16 17 18 16 17 16 9 6 6 6 6 6 6 6 5 6 9 7 4 4 5 5 5 5 5 5 5 5 6 8 8 7 7 6 6 8 10 9 8 8 7 9 9 9 10 10 11 10 9 9 7 8 9 9 11 9 14 28 25 16 16 15 13 18 21 23 28 34 37 42 47 54 59 66 73
16 17 17 18 17 17 17 17 16 17 17 16 16 16 17 17 17 18 15 10 8 8 7 7 7 6 6 4 4 7 7 5 5 5 6 6 6 5 5 5 5 5 7 9 10 8 7 7 9 10 10 9 9 9 9 9 11 12 11 11 9 8 8 6 9 11 10 12 12 15 27 30 22 16 14 14 17 20 21 26 32 34 38 43 51 59 68 75
16 17 17 17 17 17 16 16 16 16 16 15 15 15 16 15 14 13 13 12 11 9 8 8 7 6 5 5 5 5 5 5 4 4 5 5 6 6 5 6 6 6 7 9 11 10 8 9 10 10 10 9 10 10 10 10 12 12 11 10 7 7 7 8 11 11 10 14 14 14 23 31 23 14 15 17 16 19 19 20 24 30 37 44 53 62 70 77
17 17 17 17 17 16 16 16 16 15 14 14 14 15 16 15 11 8 9 12 10 8 8 8 7 6 5 5 6 5 5 5 5 4 4 5 6 6 6 6 7 8 8 9 11 11 10 10 11 11 10 10 10 10 11 11 12 13 11 8 5 7 7 9 12 9 10 16 13 11 20 31 27 15 14 18 18 20 21 22 28 36 48 58 65 71 75 79
16 16 16 16 16 15 15 15 14 14 14 14 16 16 17 17 14 10 11 12 10 8 7 6 6 7 6 6 5 5 6 6 6 6 5 5 6 6 7 8 8 9 10 10 11 11 11 11 11 11 11 11 11 11 11 11 13 13 9 6 6 7 6 11 12 6 11 18 13 11 16 29 38 27 18 24 26 28 30 33 40 49 63 74 79 82 82 80
14 14 14 14 14 14 14 14 14 13 12 13 15 16 17 16 12 12 15 15 11 7 6 5 6 6 6 6 5 5 5 5 6 6 5 6 7 7 8 8 9 9 9 10 11 12 12 12 11 12 12 12 11 11 11 11 14 12 8 6 6 7 8 12 13 12 19 22 15 14 20 34 47 38 28 32 35 37 42 48 56 65 77 83 85 84 80 78
13 13 13 13 13 14 14 13 12 11 10 11 12 13 13 11 10 12 16 15 12 9 6 5 5 5 5 5 5 5 5 5 6 7 7 8 8 8 9 10 11 11 11 11 11 12 13 12 12 12 11 13 11 10 10 11 13 12 8 9 14 24 28 26 31 34 30 24 17 22 34 42 45 38 35 40 42 46 56 68 79 86 88 87 83 79 77 80
12 12 12 11 11 11 11 12 12 10 10 11 11 9 7 7 10 13 13 12 12 10 7 5 5 5 4 4 5 5 5 6 7 9 9 9 10 10 11 12 12 13 14 13 11 12 15 13 12 12 12 13 11 10 11 12 15 15 12 16 25 42 51 48 52 50 35 26 23 30 45 44 33 32 38 42 45 52 65 80 90 92 87 82 76 72 75 85
10 9 9 8 6 6 7 9 10 9 8 7 7 6 4 6 10 11 10 10 10 10 8 5 4 5 4 4 5 6 6 7 8 10 10 10 11 11 11 11 12 13 13 14 13 14 18 18 14 12 12 12 11 11 13 13 16 16 14 19 25 36 49 53 55 48 38 40 37 33 40 37 29 35 41 42 48 60 73 84 86 83 80 76 69 62 64 68
7 6 5 5 4 4 5 6 6 5 5 4 4 4 4 8 10 9 8 8 8 9 10 7 4 4 4 4 6 6 8 9 9 10 11 12 12 12 12 12 12 13 13 15 15 13 16 17 14 12 11 11 10 10 12 12 14 15 17 20 24 31 41 47 49 42 45 64 63 42 34 33 34 39 40 45 58 73 80 79 76 77 75 70 61 50 44 36
5 4 4 4 4 3 3 4 4 3 4 3 4 4 5 9 10 8 7 6 4 6 9 9 5 5 6 6 7 8 9 10 10 11 12 14 15 13 13 13 13 14 13 16 17 15 15 14 12 12 9 10 11 10 13 13 12 18 23 23 25 32 42 53 56 47 53 73 66 40 34 38 40 44 50 61 71 74 74 71 72 73 66 60 54 46 40 35
3 3 3 3 3 3 3 3 3 3 3 4 4 4 6 7 6 6 5 5 4 4 6 7 6 7 8 8 9 9 10 10 11 12 12 16 18 15 13 14 14 14 14 16 18 18 17 14 11 10 8 9 10 9 12 13 15 21 26 27 27 31 40 56 65 62 67 79 63 40 42 46 46 54 65 71 71 70 71 73 71 66 62 62 61 56 50 41
2 3 3 2 2 2 2 3 3 3 4 4 4 5 6 5 5 5 5 4 5 5 6 7 7 9 9 9 10 10 11 11 11 13 12 16 20 18 14 14 14 14 14 16 17 16 18 17 11 9 9 8 8 11 12 14 18 21 25 31 34 39 45 53 63 67 72 83 73 53 47 49 52 58 64 70 77 80 80 78 72 66 68 72 67 57 43 29
2 3 2 3 3 2 3 3 3 4 4 4 4 5 5 4 4 5 5 6 6 7 7 8 9 10 10 11 10 10 11 11 11 13 13 15 19 18 15 15 15 15 15 16 16 14 18 21 14 7 8 8 8 11 12 14 16 17 25 35 39 48 56 56 61 63 67 82 86 73 62 57 57 62 70 81 87 84 81 77 71 69 72 71 59 43 29 28
3 3 3 3 3 3 3 4 4 4 4 4 4 5 4 4 4 5 6 7 8 8 8 9 9 10 10 10 10 10 11 12 12 13 13 15 17 17 16 15 15 15 15 16 16 13 17 22 17 8 7 9 10 13 15 19 21 22 29 35 39 49 57 61 62 59 67 85 93 91 81 66 64 73 79 82 81 77 76 72 67 67 67 56 38 27 30 43
3 3 3 4 4 4 4 4 4 4 5 5 5 5 5 5 5 6 7 8 8 9 9 9 9 9 9 9 9 10 11 12 12 13 14 15 16 17 16 15 15 16 15 16 15 13 16 19 16 9 8 9 10 14 19 22 24 29 35 41 51 61 66 77 80 69 75 91 95 98 95 80 76 76 70 71 76 74 68 63 62 62 52 36 25 29 45 57
3 3 4 4 4 4 4 4 5 5 5 5 6 6 6 6 7 7 8 8 9 9 9 9 8 8 9 8 9 10 11 12 13 14 14 15 16 16 15 15 16 16 15 16 15 13 15 16 13 10 10 12 13 17 22 24 25 30 38 47 60 68 71 87 95 86 88 93 88 94 96 80 69 65 63 71 74 65 57 55 56 50 34 25 31 44 54 59
3 4 4 4 4 4 5 5 5 6 6 6 6 7 7 8 8 8 8 9 9 9 8 8 8 8 8 8 9 11 12 13 14 15 15 15 16 16 15 16 16 16 16 16 14 14 16 17 15 10 9 11 14 20 23 21 20 26 36 46 57 67 76 88 93 93 99 94 88 99 94 67 54 61 67 68 62 54 49 48 45 35 26 31 44 54 57 58
4 4 4 4 5 4 5 6 6 6 6 6 7 8 8 9 8 8 9 8 9 8 8 8 7 8 8 8 10 12 13 14 14 15 15 15 16 16 16 16 16 16 17 15 14 14 15 20 19 15 18 20 18 21 22 19 20 29 40 50 60 72 83 88 89 96 97 85 87 105 96 68 59 63 60 53 51 50 46 41 35 29 33 44 53 55 56 58
4 5 5 5 6 5 5 6 6 6 6 7 8 8 9 9 8 8 8 8 8 8 7 7 7 7 8 9 11 13 15 15 15 16 16 16 17 17 16 17 17 16 16 14 14 12 14 23 25 23 31 38 35 32 31 30 33 39 49 61 69 77 86 90 94 100 95 84 90 102 94 79 68 56 44 41 48 52 47 36 30 33 44 54 56 55 56 61
5 5 5 6 6 6 6 6 7 7 7 8 8 8 8 8 8 8 8 8 8 7 7 7 6 7 7 9 11 14 16 16 16 17 17 17 17 16 17 18 17 16 15 14 13 11 15 25 28 22 23 32 35 31 31 38 44 48 59 70 72 78 92 99 98 99 99 96 95 91 90 90 73 46 34 39 50 56 48 35 36 46 53 55 56 57 59 69
5 5 5 6 6 6 6 7 7 8 8 8 8 8 8 8 8 8 7 7 7 7 7 6 6 7 7 9 12 15 16 17 17 17 17 17 17 17 17 18 17 15 14 13 13 12 15 23 25 18 14 21 26 25 30 41 47 52 62 68 68 77 93 100 100 99 100 102 96 81 80 82 60 35 34 45 55 57 46 39 48 56 55 55 57 55 59 76
6 6 6 6 6 6 7 7 8 8 8 8 8 8 8 8 8 7 7 7 6 6 6 6 6 6 7 9 13 16 17 17 17 18 18 18 17 17 17 18 18 16 13 14 14 12 14 19 17 13 13 17 21 25 31 36 39 45 51 55 63 77 90 98 101 100 99 102 96 77 65 58 42 34 42 49 50 50 49 50 55 57 55 55 54 55 67 86
6 6 6 6 7 7 7 7 8 8 8 8 8 8 7 7 7 7 7 6 6 6 6 6 6 6 7 11 14 17 18 18 18 18 18 18 17 16 17 18 18 16 14 14 13 13 15 15 14 13 13 14 19 25 27 28 30 35 44 57 71 84 94 100 100 98 95 88 74 58 47 38 33 40 49 45 42 51 61 60 56 56 55 54 57 67 83 97
7 6 7 7 7 8 8 8 8 8 8 8 8 7 7 7 7 7 6 6 6 6 6 6 6 7 9 12 16 18 18 19 19 18 18 18 16 15 17 19 18 17 15 14 14 15 15 13 13 14 12 14 21 22 19 23 27 32 47 63 71 82 97 101 96 92 82 62 44 38 37 33 34 44 48 41 44 62 71 64 58 59 55 53 63 80 93 100
8 8 8 8 8 8 8 8 8 8 8 8 7 7 7 6 6 6 6 6 6 5 6 6 6 8 10 14 17 18 19 19 18 17 17 17 15 15 17 19 20 18 16 15 15 15 15 13 13 14 14 15 19 20 16 19 27 39 53 54 51 73 98 99 88 77 59 44 36 36 42 48 49 50 46 43 52 68 73 66 60 61 55 53 67 87 97 99
10 10 10 9 9 9 8 8 8 8 8 8 7 7 7 6 6 6 6 6 6 6 6 6 7 9 12 15 18 19 19 19 18 16 17 16 14 14 17 20 20 20 18 17 17 16 15 14 13 18 23 18 15 19 17 19 29 43 50 47 53 79 94 84 70 52 35 35 41 43 51 55 50 50 55 59 63 69 71 66 63 66 68 71 81 94 100 98
Wind_Speed
6 5 7 8 7 5 3 1 2 3 4 4 5 5 5 4 4 5 6 8 9 9 8 8 7 7 6 5 5 5 5 5 5 6 6 7 7 8 8 8 8 8 8 8 9 10 11 10 10 10 10 10 10 10 10 10 11 11 12 13 14 15 16 16 18 20 23 23 22 22 23 24 23 22 23 22 21 21 20 17 18 19 18 19 21 22 23 22
9 7 8 7 6 4 2 0 2 3 3 4 5 5 4 4 5 6 7 8 9 8 7 7 7 7 6 5 5 5 4 4 5 6 6 7 8 8 9 9 9 9 9 10 10 11 11 12 11 10 10 10 10 10 10 10 11 11 12 13 13 14 15 16 17 19 21 22 22 21 22 22 23 22 22 22 20 19 18 17 19 19 18 18 20 22 23 22
14 12 9 7 5 3 1 1 2 2 3 3 4 3 3 4 6 7 8 8 8 7 7 7 7 6 5 5 4 4 4 5 5 5 7 8 9 9 10 10 10 10 10 10 11 11 11 11 11 10 10 10 9 9 9 10 11 11 12 13 13 14 14 15 16 17 19 21 20 20 21 21 22 22 22 22 20 15 16 20 22 21 19 19 20 22 23 23
13 11 8 6 4 2 1 1 2 3 3 3 3 3 3 5 7 8 8 7 6 6 6 7 6 6 5 5 5 4 4 5 5 5 8 10 10 10 10 11 11 11 10 10 9 10 10 11 11 10 10 10 10 10 11 11 12 11 12 12 13 13 13 14 16 17 18 20 20 21 21 21 22 22 21 21 20 18 18 20 22 23 24 23 22 23 25 26
11 9 8 6 4 2 1 1 2 2 2 3 2 3 4 6 7 8 7 6 5 4 5 6 6 5 4 4 4 4 5 6 6 7 8 9 9 10 10 10 10 10 10 10 9 9 10 10 10 11 11 11 11 11 11 11 11 11 10 10 12 13 13 14 16 17 18 19 20 21 22 22 21 20 20 19 22 23 21 22 24 26 26 23 20 19 21 22
10 8 7 5 3 2 0 2 2 2 2 2 2 3 5 7 7 7 6 5 4 4 4 5 4 4 4 3 4 5 6 6 7 8 7 8 8 9 9 9 10 10 10 10 9 9 10 10 10 11 11 10 10 10 9 10 10 9 9 10 12 14 15 15 16 17 19 20 21 22 22 22 21 20 19 20 22 22 21 22 21 20 19 18 17 16 16 16
9 8 6 4 3 1 1 1 2 2 1 1 2 4 6 6 6 5 5 4 4 4 4 4 4 3 3 4 4 6 6 6 6 7 7 8 8 8 8 9 10 9 9 9 9 9 9 9 9 9 8 8 8 9 10 11 10 10 10 11 12 15 15 15 16 18 19 21 21 22 21 22 22 20 18 18 18 17 15 15 16 16 17 18 17 17 17 16
8 7 5 4 2 1 0 1 1 1 0 1 3 5 6 5 5 5 5 4 4 4 4 4 4 4 4 5 5 6 7 7 7 7 8 8 8 8 8 8 9 9 9 9 9 9 8 9 10 10 9 10 11 12 12 12 11 12 11 11 13 15 15 15 17 18 20 21 21 21 20 20 20 18 17 15 13 12 13 15 17 17 18 17 17 17 16 16
8 6 5 3 2 1 1 1 1 0 1 3 4 5 5 4 4 4 5 5 5 5 5 5 5 6 5 5 6 6 7 8 7 8 8 8 8 8 8 8 9 9 10 9 9 9 11 13 13 14 12 12 13 13 13 12 12 12 11 12 13 14 15 16 17 18 19 20 20 18 16 15 16 15 14 12 11 10 13 16 17 17 16 16 16 16 16 16
8 6 5 4 3 3 2 2 1 0 2 4 4 4 4 4 4 5 5 5 5 5 5 5 6 6 7 7 7 7 9 9 8 8 9 9 9 10 9 10 11 11 11 11 11 13 14 15 16 16 14 13 13 13 12 12 12 13 12 13 12 13 15 15 16 17 17 18 18 17 13 14 17 15 12 11 9 10 14 17 17 16 15 15 16 16 16 16
8 7 5 5 4 4 3 2 0 1 3 4 4 3 4 4 5 5 5 4 4 5 5 7 8 8 9 9 8 9 10 10 10 10 11 11 11 12 12 13 13 13 13 13 14 14 15 17 17 15 13 13 13 12 11 11 13 13 11 11 12 14 15 14 14 15 17 17 18 15 11 16 18 14 12 10 9 12 15 18 17 16 16 15 16 16 15 16
8 7 6 5 5 4 3 1 1 2 3 3 3 3 4 4 4 4 4 5 5 6 8 9 10 10 11 8 8 10 11 11 12 12 12 12 13 14 15 14 14 15 15 15 15 14 15 17 15 15 14 13 13 10 10 13 15 12 11 12 11 13 14 14 15 17 18 18 18 15 11 16 19 14 11 10 12 14 17 18 17 17 16 14 15 14 14 15
9 8 7 6 4 3 2 1 1 2 2 2 2 3 4 4 4 5 5 6 7 9 10 11 11 11 11 10 11 13 13 12 13 12 13 13 14 15 16 16 16 16 16 15 15 14 15 15 15 16 14 14 14 11 12 15 15 12 11 14 14 15 16 14 15 17 18 18 18 16 13 15 16 13 12 11 13 16 17 19 17 16 14 12 12 12 12 13
8 7 6 5 3 2 2 1 1 1 1 3 4 4 4 4 5 6 7 8 9 10 10 10 10 11 12 13 14 14 14 14 15 14 14 14 14 15 15 16 15 15 15 14 14 14 14 15 16 16 14 16 14 11 13 14 14 14 12 17 21 21 19 16 18 19 18 19 20 16 14 16 13 12 12 12 14 17 18 18 16 14 12 10 10 10 11 11
8 6 5 4 3 3 3 2 2 3 4 4 4 5 6 6 7 8 9 10 10 10 10 10 10 11 12 14 16 16 15 15 15 15 15 15 15 15 15 15 14 14 14 14 14 14 14 15 14 14 14 16 14 11 13 14 16 19 17 20 25 25 21 17 20 24 21 20 22 18 15 15 14 13 12 12 15 16 17 16 12 12 10 10 9 9 10 10
7 6 6 5 5 5 5 4 4 5 5 5 6 7 8 8 9 10 10 10 10 10 10 10 12 12 11 14 16 15 13 13 13 15 16 16 15 14 14 15 14 14 15 14 14 14 13 13 12 14 14 14 16 13 12 17 20 22 22 23 26 27 24 19 21 26 23 20 21 20 17 15 16 16 12 12 16 15 14 12 10 11 11 11 11 10 11 11
8 8 8 8 8 7 7 6 6 7 7 8 8 9 9 10 10 11 11 11 12 12 12 11 11 12 12 12 13 14 14 14 14 14 15 15 14 14 15 15 15 15 14 14 14 13 11 11 12 14 16 17 20 18 17 20 22 23 25 26 27 29 27 23 23 26 23 18 20 20 15 13 15 16 13 11 13 10 9 9 10 11 12 13 12 12 13 15
10 10 10 10 10 9 8 8 8 9 9 9 10 10 10 10 10 10 9 10 11 12 13 14 11 11 14 14 13 15 16 16 15 14 14 14 14 15 15 14 15 14 13 12 12 12 10 10 11 14 19 22 23 25 23 19 19 23 26 27 28 28 26 25 26 27 24 17 19 20 13 13 17 13 10 10 10 7 8 10 11 12 14 15 15 15 17 19
12 12 12 12 11 11 10 10 11 12 11 11 11 11 11 12 11 11 11 10 10 11 13 14 14 15 18 18 17 16 16 17 17 14 14 13 13 14 13 13 14 13 11 11 12 14 10 7 12 18 23 26 25 26 24 18 17 21 24 26 29 30 27 24 24 28 25 18 20 20 12 16 20 11 5 9 11 10 9 11 13 14 16 17 18 19 20 21
14 14 14 13 13 12 12 13 14 14 14 13 12 12 13 13 13 13 12 10 13 15 14 13 13 15 16 18 18 15 15 17 15 13 13 13 12 13 13 13 13 12 11 11 14 15 12 12 20 24 23 23 23 23 22 20 19 21 24 25 28 31 29 25 24 27 24 20 22 20 11 13 18 12 6 9 12 12 11 12 14 16 18 19 21 22 23 24
16 15 14 14 14 15 15 16 16 16 15 15 14 14 14 14 14 14 12 13 17 19 17 16 14 11 11 14 15 15 15 15 13 11 11 12 12 12 14 12 10 12 13 13 13 12 15 21 25 23 20 20 21 22 22 21 20 22 25 26 28 31 31 26 25 26 23 20 22 22 12 9 15 18 10 11 13 14 14 14 16 19 20 22 24 25 24 25
16 15 15 15 16 16 16 16 16 16 15 16 16 16 16 16 16 16 14 17 20 19 19 18 15 12 11 12 14 14 11 8 10 11 11 13 13 13 13 10 10 13 15 15 13 13 19 25 23 20 20 20 19 21 22 21 21 23 25 28 29 32 33 29 27 25 20 21 23 23 15 3 10 20 14 14 17 17 18 18 19 20 22 24 26 26 25 24
16 16 16 17 17 16 16 16 16 15 16 18 17 17 17 18 18 17 17 18 18 18 19 17 15 12 11 12 14 14 9 7 10 12 12 14 13 13 12 10 10 12 14 16 17 18 22 24 22 21 21 20 19 20 20 20 21 22 25 29 30 32 31 29 31 25 17 22 22 22 20 3 4 21 19 15 18 18 19 19 19 21 23 24 26 26 26 26
17 17 18 17 17 16 15 15 14 15 16 17 15 14 15 16 17 17 18 18 17 17 17 16 15 12 10 11 12 14 12 11 12 13 14 14 13 13 13 11 10 9 12 16 19 22 23 23 23 23 22 20 19 18 19 20 20 22 27 29 31 31 26 26 31 25 20 23 22 23 24 5 6 18 23 16 17 17 18 19 19 21 24 24 24 25 25 26
18 18 17 16 16 15 15 14 13 14 13 12 10 10 10 11 13 13 13 15 17 16 15 15 15 14 12 10 10 12 13 12 13 14 14 14 13 14 14 13 12 11 11 13 17 22 21 21 23 23 22 19 18 19 20 22 22 24 28 29 31 30 25 26 26 22 24 25 23 21 16 7 11 20 22 20 21 20 20 21 20 20 22 24 24 24 23 23
18 17 16 14 14 13 12 11 10 9 7 5 5 5 4 7 10 10 7 9 14 16 15 14 13 15 13 11 10 8 10 13 14 14 13 13 13 14 15 16 15 14 12 9 13 19 19 19 21 22 21 18 19 22 23 25 25 26 29 29 31 29 25 27 22 19 23 23 21 17 7 11 24 24 20 25 29 29 27 24 23 22 22 23 23 24 24 23
16 15 13 12 11 10 9 7 6 4 2 1 2 1 3 9 9 7 2 4 11 14 15 14 13 14 13 13 12 8 9 12 12 13 13 13 13 13 15 17 17 17 15 11 10 15 18 18 20 21 22 20 23 25 25 25 24 26 28 29 32 28 25 25 17 17 25 23 18 13 8 14 24 25 25 33 36 34 33 29 27 27 25 25 25 24 25 25
13 12 10 9 8 6 5 3 1 1 1 1 2 2 5 7 6 5 3 3 7 11 13 13 12 12 12 12 12 12 13 11 11 14 15 14 14 13 14 17 18 19 18 13 11 14 17 18 20 22 23 23 25 24 23 23 23 25 28 31 33 28 26 22 13 21 28 20 14 13 10 10 20 30 32 35 37 35 34 34 33 32 31 30 28 26 27 29
11 9 8 6 5 4 2 1 1 3 2 2 3 3 2 3 4 5 5 5 5 8 10 10 9 9 11 12 12 13 13 12 14 17 16 14 14 14 15 16 18 20 19 16 12 13 17 19 21 23 23 23 23 22 22 23 24 25 28 34 34 28 29 21 14 28 27 14 14 17 13 7 18 38 39 33 34 33 33 35 34 34 32 30 29 29 32 35
9 8 7 6 5 3 2 1 2 2 2 2 2 1 2 3 2 3 4 4 4 7 8 9 9 9 8 9 11 12 13 15 16 16 15 15 14 14 15 16 17 18 19 17 13 11 17 21 21 22 22 21 22 22 23 24 23 25 30 37 35 32 32 19 16 30 21 10 19 22 19 11 11 29 36 29 28 30 32 34 34 33 30 29 31 34 39 44
9 8 7 5 4 3 2 2 1 2 2 3 2 1 1 1 1 4 4 2 4 6 7 8 10 10 8 9 12 13 14 15 15 14 13 14 14 13 15 18 18 16 17 18 15 9 13 22 23 22 22 22 22 23 24 24 23 25 32 38 36 33 31 18 17 22 6 8 23 23 22 15 10 20 29 27 29 31 32 32 31 31 31 34 39 45 51 57
8 7 6 5 4 4 4 5 5 6 6 6 5 3 4 4 4 6 5 1 2 4 6 8 10 11 11 12 14 14 15 16 16 16 17 18 19 19 21 24 23 19 18 20 20 11 7 18 26 24 23 25 26 26 26 25 22 24 34 38 27 18 17 11 9 8 4 15 26 24 21 16 16 22 26 27 30 30 28 27 28 32 37 43 49 56 62 63
7 7 6 6 5 5 5 6 6 6 6 5 6 6 8 7 6 5 4 2 1 4 7 8 10 12 13 14 15 15 16 17 18 18 19 20 23 24 24 25 24 22 19 19 24 19 8 13 25 26 23 25 27 28 28 27 23 24 33 33 19 7 6 6 5 4 8 22 35 33 23 16 18 23 27 31 32 31 28 26 29 38 45 51 58 64 66 64
9 8 8 8 7 7 6 6 7 7 7 8 8 8 9 10 7 5 5 4 3 4 8 10 10 12 15 16 17 17 16 17 18 17 17 17 21 24 22 23 23 23 21 19 22 24 13 8 21 28 23 22 25 24 25 26 21 23 30 27 20 12 3 4 6 5 9 22 38 38 20 15 23 27 32 36 34 30 27 27 35 44 51 57 63 69 70 70
10 9 9 8 8 9 8 8 9 9 10 10 9 9 10 9 7 6 7 6 5 4 6 10 12 12 15 17 17 17 16 16 17 17 17 18 22 25 22 22 23 23 24 20 19 23 15 6 16 25 22 20 22 21 23 23 19 22 27 26 26 21 8 10 13 17 17 16 22 26 20 23 29 31 35 34 28 26 28 36 45 48 52 59 67 73 75 75
10 10 10 9 9 10 10 10 11 10 11 9 7 9 12 10 8 9 10 9 10 8 5 8 12 13 14 16 17 17 16 17 17 17 19 18 20 24 22 21 23 24 25 22 19 21 17 9 13 22 23 20 21 21 20 21 21 22 24 26 29 24 13 12 15 19 16 8 12 20 26 30 29 28 28 22 22 31 38 44 47 49 57 65 70 73 73 72
12 11 11 10 10 10 10 11 11 10 9 4 3 9 14 12 11 12 12 11 13 13 11 10 12 14 15 15 17 17 16 17 17 17 20 18 16 22 22 19 21 23 23 23 21 20 18 11 14 23 25 21 22 22 18 19 22 22 23 27 28 21 16 12 8 9 7 4 11 21 29 34 26 18 19 22 30 40 42 46 51 58 65 67 68 68 68 71
14 12 11 11 11 10 10 10 9 8 7 4 7 13 15 13 14 13 13 13 13 14 15 14 14 15 17 16 16 17 17 18 19 18 20 18 15 19 21 18 19 21 21 22 21 22 18 11 14 24 25 22 23 22 19 19 22 24 24 25 23 15 14 16 9 6 6 3 7 18 30 31 21 18 25 33 37 39 44 53 60 64 64 62 64 67 70 75
14 13 11 11 11 10 10 9 8 7 7 6 11 15 15 15 16 14 14 14 13 14 15 16 16 15 17 17 16 17 18 20 20 19 19 18 15 17 18 17 18 19 20 21 21 23 19 9 14 24 25 23 24 24 22 21 26 31 28 26 25 14 12 20 17 9 8 5 5 14 21 18 18 26 32 31 33 41 53 60 61 61 60 60 65 70 74 76
12 12 12 12 12 11 10 11 10 8 7 9 13 15 15 16 15 14 14 13 14 15 15 16 16 16 17 18 17 16 17 19 20 19 19 18 16 16 16 15 17 18 19 20 21 23 18 10 17 28 28 23 23 23 18 18 27 34 32 32 32 24 20 23 21 15 10 5 4 7 12 19 25 27 28 29 37 51 58 59 58 58 59 63 69 74 74 71
11 11 13 13 12 11 12 12 11 9 10 13 15 15 15 14 14 13 13 14 14 15 16 16 17 17 17 18 18 16 15 17 19 18 17 18 17 15 13 14 16 18 19 20 21 23 18 13 22 33 31 23 23 21 14 16 26 32 32 31 28 25 23 16 11 16 15 8 9 7 11 25 30 26 30 39 48 58 60 57 57 58 62 69 73 73 69 66
10 11 12 11 9 11 12 11 11 11 12 14 14 14 14 13 13 13 12 13 15 15 16 17 17 18 17 17 18 17 14 15 17 17 16 17 16 14 12 13 15 18 20 20 21 23 19 16 25 33 28 21 22 21 15 20 31 33 32 31 27 26 25 14 8 19 23 18 20 15 12 26 32 31 41 51 56 60 59 55 56 61 69 74 72 68 66 64
9 10 12 10 9 11 12 10 11 11 12 13 13 13 13 13 13 13 13 13 14 15 16 17 17 18 17 17 17 17 15 14 15 16 15 15 15 13 11 11 15 18 19 19 21 23 18 16 25 35 33 27 26 23 21 26 35 38 37 36 33 30 28 21 13 19 23 20 18 9 11 32 44 43 52 60 60 59 57 56 61 68 74 72 68 67 65 63
8 10 12 11 10 11 12 12 12 11 11 12 12 12 12 13 13 13 13 14 14 15 15 17 17 17 18 17 16 18 16 14 14 15 14 13 13 12 10 10 14 17 19 20 21 21 18 14 19 27 27 27 28 26 28 34 38 37 37 36 35 32 29 23 17 16 18 20 18 7 13 41 56 56 62 65 60 56 56 60 67 73 73 69 67 66 64 63
8 9 10 12 11 10 10 12 12 11 12 11 12 13 12 13 13 13 13 14 14 14 15 16 17 17 18 17 16 17 16 14 14 13 13 13 12 12 11 9 13 17 19 20 20 22 19 12 13 16 11 10 15 17 23 33 34 33 33 33 33 32 27 21 19 17 16 27 32 21 24 49 65 66 69 66 56 54 59 68 73 72 68 67 67 66 64 64
8 8 9 11 12 10 10 13 13 12 12 10 11 13 12 12 13 12 13 14 13 13 14 15 16 16 17 17 15 16 16 15 14 13 13 12 12 13 11 9 12 16 19 20 21 23 20 12 12 18 16 14 17 18 19 24 28 31 32 31 31 28 23 20 21 20 21 30 38 34 34 51 65 70 70 63 55 57 67 74 74 70 68 68 67 65 65 64
8 10 9 9 10 11 12 13 14 13 12 11 11 13 12 12 12 12 12 13 13 13 13 14 16 16 17 17 15 16 16 15 14 13 12 12 12 12 10 8 11 15 19 20 21 24 23 17 19 27 29 23 19 19 20 22 29 33 30 27 26 24 23 23 22 25 27 24 31 44 49 53 63 70 65 58 58 66 74 75 71 70 70 68 67 66 66 65
9 11 11 10 10 11 12 13 14 14 12 11 12 12 12 12 12 11 11 11 12 13 13 14 16 16 17 17 16 17 17 15 14 13 11 11 11 11 10 8 9 15 20 20 22 25 24 24 28 34 34 27 20 22 27 31 34 31 24 21 21 22 25 27 25 28 29 23 32 51 57 56 62 64 57 58 66 72 74 71 68 69 69 67 67 67 66 66
11 12 13 13 11 12 12 12 13 13 12 11 12 12 12 12 11 11 11 11 12 13 13 14 15 16 17 17 17 18 18 17 15 14 12 11 11 12 10 7 9 15 20 21 23 26 27 30 33 36 36 30 25 29 36 36 30 21 16 18 20 23 27 28 28 30 33 36 45 54 58 60 60 55 55 64 71 72 70 67 67 69 68 68 68 68 68 69
14 14 14 13 12 12 12 12 13 13 12 12 12 12 11 11 11 11 11 11 12 13 13 14 15 16 16 16 17 18 19 18 17 15 13 11 12 12 9 7 9 14 19 22 23 25 29 33 34 37 38 32 29 36 41 35 21 11 14 21 25 27 29 30 32 34 39 50 58 57 59 61 57 53 61 70 72 70 68 66 68 69 68 69 69 68 69 69
17 17 16 14 12 13 12 13 13 12 12 12 12 11 10 10 12 12 11 12 13 13 13 13 14 15 15 16 17 18 18 17 15 15 13 12 13 12 8 7 9 13 19 22 23 26 31 34 36 38 37 34 35 41 42 31 14 8 19 30 32 32 33 34 36 40 46 54 58 58 57 55 53 59 70 73 71 70 68 68 69 68 67 69 70 69 70 68
19 19 19 16 14 14 13 13 12 11 11 12 11 11 11 11 12 12 12 13 13 13 13 13 14 14 14 15 17 18 17 15 14 13 12 11 12 12 10 9 10 14 20 22 23 27 32 36 38 35 34 37 41 45 41 27 11 12 25 33 33 32 35 39 44 50 52 51 52 54 52 51 58 68 74 74 72 71 70 69 68 66 65 66 68 69 69 68
Wind_Direction
161 176 184 173 165 155 137 104 344 335 343 345 334 334 340 341 341 344 347 346 346 348 349 348 348 348 345 338 331 330 325 323 330 332 332 334 338 340 340 341 341 337 334 330 324 323 324 326 326 322 318 315 315 313 310 307 305 304 303 302 305 307 309 309 307 306 307 311 319 321 321 322 322 319 317 317 317 318 319 313 301 296 296 296 294 291 291 293
171 191 192 171 159 146 129 345 324 340 351 343 332 334 340 346 348 349 349 347 346 348 349 348 347 346 339 334 331 324 316 316 322 326 331 332 333 333 334 335 335 334 332 328 325 322 321 323 322 318 313 310 311 308 305 303 302 305 304 304 308 308 309 310 308 310 312 317 323 323 321 321 322 320 318 315 319 323 315 297 288 288 287 288 291 292 294 295
181 189 187 168 151 146 160 307 338 357 353 334 324 331 348 354 349 349 349 346 346 349 352 352 349 345 338 330 322 318 319 318 314 325 338 337 334 333 334 335 334 332 331 328 326 325 325 324 322 319 312 309 308 304 302 301 302 307 308 310 312 312 316 314 311 315 316 318 322 320 317 320 320 319 316 315 319 318 298 289 288 290 293 293 290 291 294 296
180 181 174 161 154 168 203 351 4 360 339 320 320 338 357 351 346 349 348 344 348 356 358 355 350 343 335 326 318 316 325 328 327 330 337 339 338 336 336 334 333 332 330 328 330 331 329 326 324 320 312 308 307 305 305 304 307 313 315 316 316 318 322 318 316 318 316 318 320 317 317 319 319 316 316 319 316 303 290 292 298 303 307 305 299 295 296 299
175 173 166 161 168 182 161 25 7 348 317 314 332 351 352 345 347 348 345 347 355 4 1 355 348 342 334 328 322 315 321 334 340 335 335 339 338 337 337 335 333 333 330 329 333 335 331 328 325 320 314 312 311 311 311 310 315 321 323 322 321 323 324 320 319 318 317 319 318 318 319 319 319 319 321 319 311 306 305 306 308 313 316 318 318 313 309 310
173 170 165 167 178 176 82 16 352 319 311 326 350 346 343 344 346 344 345 350 358 2 357 353 348 342 338 338 340 337 340 347 343 341 343 340 341 341 340 339 338 337 334 334 337 338 333 331 327 323 319 318 320 321 323 327 331 335 337 332 328 326 324 322 320 318 319 320 320 322 323 322 322 322 322 317 314 318 320 319 324 332 338 346 349 344 339 334
172 168 167 174 179 151 37 359 319 304 323 351 346 341 342 344 341 340 345 351 357 355 351 353 351 350 356 358 358 360 3 3 355 355 354 348 346 344 345 348 346 342 340 340 343 341 340 342 340 336 335 340 346 348 347 347 351 348 343 337 331 327 324 323 322 323 325 324 324 327 327 324 321 324 327 327 331 338 341 347 358 4 1 1 0 357 355 351
168 168 171 174 165 122 38 309 284 294 13 347 342 340 339 336 335 340 346 353 356 353 357 360 359 3 9 9 13 19 12 9 8 4 0 356 354 355 360 359 353 351 352 353 353 354 3 11 10 6 6 8 4 359 357 354 352 349 345 338 332 330 328 327 328 327 328 326 326 331 330 322 322 331 339 346 360 6 10 15 12 7 1 357 355 353 351 349
164 166 168 164 151 139 177 228 218 150 347 342 340 335 331 327 333 342 348 355 358 6 11 8 12 18 21 21 23 29 19 15 15 10 13 15 14 18 16 12 10 11 10 8 10 18 24 22 17 13 11 7 0 357 356 353 352 354 349 340 336 334 331 329 330 331 330 330 336 342 337 329 334 346 352 6 29 26 17 15 9 4 358 353 350 349 348 346
161 162 161 156 149 157 182 192 181 327 339 344 336 326 322 326 341 351 356 5 13 22 25 27 32 31 33 31 30 39 34 31 32 28 32 36 34 31 26 24 23 20 19 19 23 25 24 19 13 9 7 3 359 355 355 357 359 359 350 344 344 339 336 338 338 341 342 341 352 358 348 343 347 358 10 20 30 24 16 12 7 3 358 356 356 354 354 350
156 157 155 154 153 163 173 169 198 340 352 344 327 319 330 346 359 7 13 26 37 45 49 46 43 41 44 39 40 52 49 45 42 37 36 37 34 31 29 27 24 21 20 21 21 21 18 13 9 9 8 4 0 357 3 9 5 5 6 2 357 348 349 356 352 353 355 353 3 7 353 349 353 8 22 17 13 13 14 11 6 3 1 359 357 355 355 354
149 150 151 152 154 158 160 153 4 7 354 330 322 340 359 10 18 30 46 60 64 64 59 54 52 52 53 52 55 57 53 49 44 39 37 36 34 30 26 24 21 19 18 17 16 17 14 9 9 13 12 9 10 14 22 21 15 25 37 25 15 8 7 8 5 2 360 357 1 6 3 358 358 7 14 5 4 11 12 9 6 4 1 355 351 349 348 349
147 149 149 150 151 149 141 90 38 9 338 341 9 19 28 37 51 66 75 76 72 68 64 62 60 58 57 56 55 51 46 46 43 41 38 37 34 27 24 23 19 16 16 16 14 16 12 10 18 19 18 21 25 34 38 30 25 33 35 23 23 21 14 11 11 6 0 356 356 3 7 2 0 359 356 351 355 3 6 4 5 5 359 352 347 343 340 337
150 150 148 146 143 133 114 92 70 38 46 50 44 47 60 72 82 84 81 77 73 70 69 67 63 58 52 48 47 42 37 37 37 37 38 37 31 25 24 22 20 18 17 17 19 20 15 19 25 21 25 31 34 46 44 35 30 31 28 19 18 17 13 10 9 5 2 360 357 0 3 2 2 354 344 340 342 349 356 359 0 359 353 347 340 331 324 322
155 153 149 142 131 123 117 112 100 87 78 70 72 80 84 85 86 85 82 79 76 73 68 64 61 56 51 49 46 40 35 34 33 32 32 31 28 24 20 20 23 22 22 25 27 25 23 28 29 28 37 38 41 51 42 37 31 28 27 21 17 15 14 12 8 5 3 1 360 359 358 359 357 348 341 339 341 346 354 356 350 342 334 326 316 308 312 316
156 150 142 134 128 127 124 118 106 96 91 91 93 90 88 87 87 86 82 78 75 70 63 61 61 55 51 49 47 46 45 40 35 32 28 25 26 23 18 21 29 28 29 34 33 30 34 38 37 42 48 45 43 43 35 33 30 27 25 21 17 13 12 13 10 7 3 0 3 2 358 357 352 343 334 339 348 353 354 344 322 317 310 302 295 294 305 309
145 138 133 129 130 129 124 116 106 101 100 99 95 91 91 89 87 84 80 78 72 65 60 58 61 58 53 50 47 48 49 41 34 30 25 24 25 22 21 29 35 35 37 41 37 36 45 48 49 53 51 45 40 35 32 28 22 21 20 18 16 13 10 6 4 6 6 1 2 6 7 2 352 337 325 339 352 349 334 313 295 297 294 290 289 290 300 301
135 133 131 131 130 126 120 112 106 105 103 100 96 92 90 86 85 84 80 75 70 66 62 58 62 61 51 45 41 40 38 33 30 27 24 28 30 26 29 38 42 40 45 49 43 45 57 59 56 52 43 37 33 31 34 28 17 16 16 13 12 12 9 4 360 359 2 5 3 8 19 15 7 354 332 336 334 306 292 292 287 285 285 284 284 286 292 294
133 133 132 131 127 122 117 112 110 107 104 100 95 91 86 81 79 76 72 72 70 69 64 58 60 59 50 38 30 31 32 27 27 29 32 36 37 37 42 49 49 48 56 61 52 49 53 52 42 37 33 31 30 30 31 26 18 16 14 12 7 6 7 4 359 355 356 1 4 8 24 21 17 17 339 317 300 280 278 286 283 277 279 280 279 282 285 286
132 131 131 129 125 120 115 112 110 106 103 98 92 88 84 82 79 76 78 80 72 64 60 54 52 53 48 36 28 29 35 34 32 36 41 43 47 53 57 56 54 56 63 63 55 49 39 40 43 39 34 32 30 28 26 23 22 16 13 12 5 1 1 1 360 356 352 354 359 3 27 35 17 2 318 296 286 275 272 276 278 274 273 276 274 276 277 278
131 130 129 127 123 119 114 112 108 105 103 96 90 88 86 86 83 80 81 73 63 57 52 47 44 46 43 37 32 31 35 36 39 44 49 51 55 61 62 58 57 59 61 58 54 45 35 44 48 41 35 31 27 25 23 22 21 18 12 7 4 360 356 359 1 355 351 351 351 353 14 48 8 348 314 293 289 275 273 275 276 272 269 271 270 270 272 272
129 128 127 124 121 119 115 112 109 107 104 97 95 93 90 86 78 74 70 64 59 53 48 43 39 44 48 45 41 40 40 36 44 53 57 58 59 63 65 63 61 59 60 58 52 42 40 47 47 37 32 29 26 23 20 20 18 16 11 4 4 0 354 355 359 356 349 347 344 345 358 43 350 342 316 306 308 283 281 285 277 272 267 266 267 267 269 270
127 126 124 123 122 119 117 114 111 108 106 103 102 98 91 82 72 65 60 60 59 55 52 48 44 50 60 58 51 53 62 66 59 58 59 60 61 63 65 65 62 60 57 53 48 45 49 49 41 34 30 24 23 21 18 17 15 13 10 4 2 360 354 350 352 353 349 345 342 340 345 302 302 336 317 309 321 299 288 290 280 273 269 267 269 270 272 273
125 125 124 123 122 120 118 115 114 113 112 110 106 102 94 78 64 55 52 55 57 56 53 53 55 59 67 65 60 59 61 64 61 58 59 59 60 62 61 60 60 58 51 49 47 48 51 47 37 32 26 20 19 17 15 15 14 12 9 4 360 358 355 347 344 347 347 347 344 338 339 295 229 323 316 308 323 307 287 288 285 276 271 271 272 273 277 279
122 122 122 122 121 120 118 115 115 117 118 114 103 99 93 69 46 40 48 52 53 55 52 51 53 54 58 61 60 60 58 59 60 58 57 55 57 58 56 55 53 51 49 49 47 46 46 41 34 28 21 18 16 12 14 14 13 11 7 2 357 354 353 349 343 343 345 346 343 339 340 304 282 310 312 309 317 309 290 283 282 277 271 270 271 272 275 278
118 118 118 118 120 120 118 115 115 115 119 114 95 97 80 27 13 20 47 57 48 49 48 45 45 45 50 55 52 57 55 50 52 53 51 51 53 52 51 50 48 49 46 43 45 42 40 35 30 24 19 18 16 14 15 12 9 8 3 358 355 352 351 349 344 341 342 337 334 331 313 301 306 311 313 312 315 313 303 287 279 281 281 279 278 279 283 286
114 113 112 115 121 123 121 119 115 103 94 130 128 116 352 344 351 4 56 67 32 30 34 35 39 41 47 51 46 49 52 44 45 51 48 48 48 47 48 45 44 47 40 40 49 41 37 33 26 22 19 18 16 15 13 9 6 4 359 354 352 350 350 350 343 340 337 328 330 325 286 291 301 307 315 314 313 310 304 294 285 287 290 291 291 291 296 302
111 111 113 117 121 126 127 121 122 356 343 204 216 283 321 343 16 38 84 87 18 16 25 28 37 43 43 46 42 47 55 47 44 49 45 44 46 48 48 43 42 42 37 42 54 45 36 29 25 21 20 20 17 13 10 6 4 0 355 352 351 350 351 353 343 340 339 327 328 328 305 291 296 307 314 311 309 305 302 299 296 295 296 297 297 298 305 311
110 111 112 113 112 117 117 76 298 310 310 244 262 293 320 29 65 68 81 84 28 20 25 27 36 40 40 45 44 46 52 48 47 46 40 40 44 45 45 43 40 37 35 39 50 49 35 27 25 22 21 22 16 11 8 5 1 357 354 350 351 352 352 356 349 344 342 318 319 332 325 301 297 306 309 308 305 302 302 301 298 299 299 302 305 308 312 315
95 93 91 88 87 92 77 10 311 307 300 249 241 217 86 73 75 72 74 72 40 29 28 33 40 43 44 45 46 48 48 49 51 47 41 43 42 40 43 42 40 38 37 39 48 52 36 27 25 21 21 20 14 12 8 4 359 355 353 350 352 354 353 356 347 343 343 307 319 328 318 303 291 303 305 305 304 301 300 298 296 300 304 310 316 317 317 317
72 72 72 71 75 79 67 52 60 77 88 105 147 193 154 125 68 75 89 88 49 32 29 38 42 46 48 41 43 44 43 46 48 41 37 37 30 26 34 36 36 36 36 37 41 50 37 26 24 20 16 15 12 11 9 5 359 353 354 354 355 354 351 349 342 344 346 288 314 318 313 300 258 286 297 297 299 298 296 296 299 305 312 318 320 321 322 323
69 72 73 74 80 82 83 92 95 95 96 96 98 115 138 131 65 75 112 141 11 17 30 42 41 41 40 39 40 37 37 40 38 33 30 28 25 26 32 33 32 31 26 25 26 32 37 23 22 19 12 9 7 5 7 6 0 354 356 2 5 356 350 345 334 336 264 294 314 317 315 299 266 283 297 298 300 299 296 301 312 319 322 322 323 325 326 328
82 82 84 86 87 91 101 111 110 104 109 113 111 116 124 112 73 77 106 99 62 49 38 37 38 39 36 37 38 33 33 34 32 33 32 31 32 34 36 33 31 32 25 20 19 19 27 22 18 17 11 8 3 1 3 2 359 357 360 7 16 7 349 332 311 313 296 307 316 317 313 304 300 308 312 310 308 306 304 311 320 323 324 325 326 328 329 330
92 91 94 93 88 93 111 132 133 120 118 117 118 121 112 100 93 91 79 68 83 63 41 38 39 38 36 37 36 31 30 31 31 31 28 28 31 33 35 32 31 31 26 25 20 14 15 21 15 14 11 5 2 2 1 358 356 356 358 4 3 355 337 278 292 296 293 302 311 315 312 307 314 316 314 312 309 305 307 312 317 320 323 325 325 325 326 326
96 97 99 100 97 94 105 127 128 122 119 114 115 117 105 97 99 88 67 56 58 52 48 47 42 39 38 36 34 28 28 31 28 27 25 25 30 30 29 29 29 28 25 27 23 15 14 22 15 12 7 1 2 3 358 357 357 352 353 355 350 344 310 269 284 289 291 294 303 308 304 302 309 310 310 312 309 308 313 315 316 319 320 319 318 319 320 321
100 98 96 100 104 101 106 116 116 115 113 111 108 99 96 100 98 82 68 60 56 51 55 48 38 38 39 35 33 28 26 29 26 25 25 25 30 28 25 27 27 25 25 24 22 16 11 12 14 8 5 1 360 2 359 357 357 351 349 349 345 340 319 289 285 293 300 291 291 301 303 308 313 313 315 318 314 313 313 311 312 313 313 314 316 319 321 322
94 95 93 93 97 103 107 108 109 107 95 91 103 94 94 95 86 76 67 61 57 51 49 45 34 35 36 34 34 29 25 29 28 26 26 25 26 23 23 27 25 21 22 21 19 12 3 2 9 5 4 1 356 358 358 356 357 355 347 344 343 341 333 319 292 298 315 278 287 301 305 310 316 316 319 319 312 310 310 311 313 314 316 319 322 323 323 323
87 89 91 90 91 96 100 102 107 96 72 70 103 99 94 86 77 73 64 58 55 47 44 43 37 36 34 33 33 28 26 29 29 29 28 25 21 18 21 25 23 20 18 17 15 9 1 356 2 3 2 358 354 354 355 356 358 355 345 341 345 342 325 324 319 304 315 287 284 301 304 307 311 312 315 314 313 318 322 322 322 321 322 323 323 323 322 322
83 84 86 85 86 86 88 92 88 74 68 85 98 94 88 81 74 68 60 55 50 45 44 42 41 38 35 33 31 28 29 29 28 29 28 25 20 17 20 22 21 17 13 14 12 6 2 346 347 358 0 356 354 353 354 354 351 350 346 344 348 347 320 322 320 296 294 293 287 303 304 303 309 313 313 313 318 326 327 325 325 323 322 322 322 322 322 324
80 82 83 81 83 81 79 80 75 74 85 89 89 86 81 77 71 62 56 51 46 47 47 43 41 38 34 32 30 28 30 29 26 26 26 24 20 18 20 19 16 13 11 12 9 5 3 343 335 349 0 3 357 353 353 346 345 347 347 344 343 343 336 327 317 301 293 280 283 302 296 297 308 315 314 315 321 324 326 326 324 322 321 321 322 322 324 327
76 79 81 82 84 81 76 75 74 77 83 81 80 80 77 73 69 63 55 49 48 49 46 41 39 37 33 30 28 27 30 29 24 23 21 19 18 19 18 12 11 12 9 8 7 4 1 347 338 344 355 2 355 353 349 340 344 345 343 341 340 339 339 335 316 309 308 293 290 292 285 297 310 321 319 319 322 325 326 325 321 320 321 322 323 325 328 330
73 75 81 84 81 77 75 70 65 65 70 74 76 76 75 72 68 63 55 51 51 47 43 41 37 35 33 28 27 26 26 26 22 18 15 13 14 15 11 9 8 8 8 7 5 3 359 353 345 344 350 358 356 355 350 341 344 343 340 340 339 337 339 340 318 311 312 307 301 296 282 295 310 322 320 320 324 325 324 323 320 321 322 324 327 330 332 333
69 72 78 78 67 66 69 62 56 60 66 71 75 74 73 70 65 60 55 52 49 45 43 40 36 34 32 27 25 24 22 22 18 13 11 8 7 8 5 5 6 5 6 6 3 2 2 357 351 348 349 354 355 353 348 344 343 341 338 336 333 331 332 330 319 309 307 306 308 309 284 298 312 321 319 321 326 324 322 322 321 323 325 328 331 333 334 334
55 68 74 69 58 58 64 61 54 57 65 70 73 73 70 67 63 59 55 51 48 46 43 38 35 32 28 25 23 22 21 19 12 8 6 2 2 5 1 357 2 2 2 3 2 3 4 2 360 355 351 351 352 348 342 340 340 336 331 328 326 325 324 324 327 322 311 307 317 322 282 301 314 320 320 324 326 323 321 322 323 326 329 332 334 335 335 334
41 62 72 68 58 50 59 63 55 51 61 69 71 68 65 65 64 59 53 49 45 41 38 35 31 27 24 23 19 18 18 14 9 4 359 358 358 0 358 351 354 356 357 359 359 0 3 8 10 5 353 335 331 326 325 327 326 326 324 321 320 320 319 325 334 330 315 311 313 302 288 304 315 320 323 325 325 322 322 324 327 330 332 335 336 336 335 335
43 59 69 70 62 47 50 63 58 49 53 62 66 66 63 60 60 56 48 45 39 34 32 30 25 21 19 17 13 14 12 7 5 359 353 354 353 354 354 345 347 352 354 354 353 358 3 6 2 356 346 326 313 311 317 317 316 320 320 317 317 316 314 326 336 328 317 311 307 304 305 310 315 321 324 325 324 323 324 327 330 333 335 337 337 336 336 336
53 58 60 66 64 51 49 59 59 51 49 53 61 65 62 54 52 48 43 39 32 28 25 21 18 14 11 9 8 8 5 1 359 355 352 350 346 348 345 336 343 350 351 352 351 355 360 358 352 349 347 343 332 326 328 324 321 322 320 318 320 315 313 325 334 330 325 312 301 312 319 315 315 321 324 323 323 325 327 330 332 334 336 338 337 337 337 336
58 60 56 57 58 53 51 54 56 54 49 48 56 63 59 50 46 42 37 32 25 22 18 13 11 7 5 5 3 0 359 357 356 353 351 346 342 343 339 330 338 348 351 351 350 353 357 355 349 346 348 350 345 338 337 334 329 325 324 327 325 315 317 327 335 333 328 313 304 316 320 316 317 322 323 321 323 326 329 332 333 335 338 339 338 338 337 337
54 56 55 52 50 51 50 50 54 56 50 45 52 58 52 44 40 36 31 25 18 15 11 6 4 2 1 0 357 356 355 353 352 352 350 345 340 340 338 330 335 346 351 350 349 352 355 352 347 345 346 350 349 343 341 338 334 330 336 338 328 320 322 327 333 334 327 317 316 319 319 317 321 323 320 320 323 327 331 334 335 338 340 340 339 338 337 336
52 53 55 51 47 50 52 50 53 56 50 44 47 51 46 37 32 26 21 17 12 6 3 1 360 359 358 356 354 354 352 349 346 345 344 340 339 339 336 331 335 343 347 347 348 352 352 350 348 344 344 350 350 344 344 344 340 342 350 341 330 326 326 327 332 335 330 324 323 322 320 320 323 322 319 321 325 330 334 336 337 340 341 340 340 338 336 334
53 53 55 50 47 53 54 51 53 51 45 42 41 40 36 27 21 15 8 6 2 359 358 357 357 356 353 352 352 351 349 345 341 339 337 334 338 340 335 327 330 335 342 345 348 351 351 349 348 346 344 349 350 345 347 352 350 346 348 341 334 328 324 326 331 332 330 326 324 323 321 320 321 321 322 326 330 333 336 337 338 341 342 341 340 337 335 334
54 53 53 48 47 53 53 49 47 42 38 37 32 26 20 13 9 4 359 358 356 353 353 353 353 352 350 349 349 348 346 342 338 334 330 330 337 341 334 325 325 331 339 345 348 350 351 349 349 349 343 345 349 347 349 358 4 349 343 336 328 323 321 322 326 327 328 327 323 321 319 318 320 324 327 330 332 335 336 337 338 341 342 340 337 335 335 336